KC4YVV-22 Weather Reports


time (UTC)temp
C
wind
direction
speed
KPH
gust
KPH
rain 1hr
cm
rain 24hr
cm
rain mn
cm
humidity
%
barometer
mb
20260506091531 22 0 0.0 9.7 0.00 0.00 0.00 64 1011.4
20260506090032 22 0 0.0 19.3 0.00 0.00 0.00 64 1011.2
20260506084532 22 0 0.0 16.1 0.00 0.00 0.00 63 1011.0
20260506083031 22 262 1.6 16.1 0.00 0.00 0.00 62 1010.7
20260506081531 22 270 0.0 9.7 0.00 0.00 0.00 61 1010.4
20260506073030 22 354 3.2 16.1 0.00 0.00 0.00 57 1010.8
20260506071530 22 304 3.2 11.3 0.00 0.00 0.00 57 1010.9
20260506061535 22 0 1.6 11.3 0.00 0.00 0.00 52 1011.6
20260506044550 22 0 0.0 9.7 0.00 0.00 0.00 46 1012.2
20260506043033 22 0 0.0 9.7 0.00 0.00 0.00 45 1012.1
20260506041540 22 0 0.0 8.0 0.00 0.00 0.00 44 1011.8
20260506040041 23 0 0.0 14.5 0.00 0.00 0.00 43 1011.9
20260506034532 23 0 1.6 16.1 0.00 0.00 0.00 43 1011.9
20260506033036 23 0 1.6 16.1 0.00 0.00 0.00 42 1012.2
20260506031553 22 0 4.8 11.3 0.00 0.00 0.00 43 1012.2
20260506030043 22 0 0.0 6.4 0.00 0.00 0.00 47 1012.3
20260506024540 21 0 0.0 0.0 0.00 0.00 0.00 51 1012.2
20260506023036 21 0 0.0 0.0 0.00 0.00 0.00 50 1012.2
20260506021530 22 0 0.0 0.0 0.00 0.00 0.00 50 1012.1
20260506020031 22 0 0.0 4.8 0.00 0.00 0.00 45 1012.2
20260506014531 22 331 3.2 9.7 0.00 0.00 0.00 43 1011.9
20260506013035 22 0 0.0 17.7 0.00 0.00 0.00 44 1011.7
20260506011530 22 0 1.6 12.9 0.00 0.00 0.00 43 1011.4
20260506010034 22 0 0.0 4.8 0.00 0.00 0.00 43 1011.3
20260506004552 22 299 1.6 11.3 0.00 0.00 0.00 40 1011.8
20260506003030 23 250 0.0 8.0 0.00 0.00 0.00 41 1011.9
20260506001531 23 0 0.0 0.0 0.00 0.00 0.00 40 1012.1
20260506000033 23 297 1.6 9.7 0.00 0.00 0.00 38 1012.2
20260505234601 23 314 0.0 12.9 0.00 0.00 0.00 39 1011.8
20260505233032 23 0 0.0 6.4 0.00 0.00 0.00 41 1011.6
20260505231536 24 0 0.0 4.8 0.00 0.00 0.00 39 1011.5
20260505230032 24 19 0.0 6.4 0.00 0.00 0.00 37 1011.6
20260505224535 25 0 1.6 11.3 0.00 0.00 0.00 37 1011.6
20260505223040 25 307 0.0 11.3 0.00 0.00 0.00 34 1011.5
20260505221534 25 0 0.0 9.7 0.00 0.00 0.00 33 1011.7
20260505220033 25 311 1.6 11.3 0.00 0.00 0.00 34 1011.8
20260505214539 25 24 4.8 22.5 0.00 0.00 0.00 34 1011.8
20260505213030 26 0 4.8 17.7 0.00 0.00 0.00 36 1011.7
20260505211530 26 8 1.6 12.9 0.00 0.00 0.00 35 1011.8
20260505210033 26 0 0.0 16.1 0.00 0.00 0.00 35 1012.1
20260505204532 27 285 0.0 11.3 0.00 0.00 0.00 35 1012.2
20260505203031 26 0 0.0 12.9 0.00 0.00 0.00 34 1012.4
20260505201535 26 29 4.8 11.3 0.00 0.00 0.00 34 1012.4
20260505200035 26 224 1.6 11.3 0.00 0.00 0.00 39 1012.5
20260505194535 25 0 0.0 11.3 0.00 0.00 0.00 39 1012.7
20260505193034 25 274 4.8 9.7 0.00 0.00 0.00 39 1012.9
20260505191536 24 285 3.2 6.4 0.00 0.00 0.00 41 1013.1
20260505190045 25 134 1.6 6.4 0.00 0.00 0.00 39 1013.6
20260505184536 25 0 1.6 9.7 0.00 0.00 0.00 40 1013.8
20260505183043 24 0 0.0 12.9 0.00 0.00 0.00 40 1014.3
20260505181532 24 331 1.6 6.4 0.00 0.00 0.00 44 1014.4
20260505180032 23 275 1.6 8.0 0.00 0.00 0.00 43 1014.7
20260505174536 23 0 1.6 9.7 0.00 0.00 0.00 45 1015.0
20260505173043 24 0 1.6 9.7 0.00 0.00 0.00 46 1015.3
20260505171536 23 0 0.0 4.8 0.00 0.00 0.00 49 1015.4
20260505170035 23 0 0.0 9.7 0.00 0.00 0.00 49 1015.7
20260505164531 23 271 0.0 8.0 0.00 0.00 0.00 49 1015.6
20260505163031 23 0 0.0 8.0 0.00 0.00 0.00 49 1015.7
20260505161532 23 230 3.2 12.9 0.00 0.00 0.00 46 1015.7
20260505153039 21 288 1.6 8.0 0.00 0.00 0.00 52 1015.6
20260505151535 21 277 0.0 6.4 0.00 0.00 0.00 55 1015.9
20260505124532 13 0 0.0 0.0 0.00 0.00 0.00 77 1015.7
20260505123032 12 0 0.0 0.0 0.00 0.00 0.00 73 1015.6
20260505121532 11 0 0.0 0.0 0.00 0.00 0.00 72 1015.5
20260505120038 10 0 0.0 0.0 0.00 0.00 0.00 73 1015.3
20260505114535 10 0 0.0 0.0 0.00 0.00 0.00 74 1015.2
20260505113032 9 0 0.0 0.0 0.00 0.00 0.00 75 1014.9
20260505111534 9 0 0.0 0.0 0.00 0.00 0.00 76 1014.7
20260505101529 9 0 0.0 0.0 0.00 0.00 0.00 78 1014.7
20260505100032 9 0 0.0 0.0 0.00 0.00 0.00 78 1014.8
20260505094531 9 0 0.0 0.0 0.00 0.00 0.00 79 1014.5
20260505093032 9 0 0.0 0.0 0.00 0.00 0.00 79 1014.5